Location: Leiter
(44.7178°N, 106.2687°W)
Time: 07:05:23
(UTC+00:00)

DX 1 - Pass Details

Date: 07 July 2022
Orbit: 616 x 630 km, 98.4° (Epoch: 17 August)

Event Time Altitude Azimuth Distance (km) Brightness Sun altitude
Rises 05:00:35 0° 6° (N) 2,929 ? -16.5°
Reaches altitude 10° 05:02:55 10° 358° (N) 2,015 ? -16.7°
Maximum altitude 05:06:56 37° 291° (WNW) 979 ? -17.1°
Drops below altitude 10° 05:10:56 10° 224° (SW) 1,994 ? -17.4°
Enters shadow 05:12:12 - 219° (SW) 2,484 ? -17.5°
